Time,TemperatureF,DewpointF,PressureIn,WindDirection,WindDirectionDegrees,WindSpeedMPH,WindSpeedGustMPH,Humidity,HourlyPrecipIn,Conditions,Clouds,dailyrainin,SolarRadiationWatts/m^2,SoftwareType,DateUTC
2013-01-27 00:00:00,16.9,7.9,30.37,North,9,1.0,5.0,67,0.00,,,0.00,0.0,meteohub,2013-01-27 05:00:00,
2013-01-27 00:02:00,16.9,7.9,30.37,NE,52,0.0,5.0,67,0.00,,,0.00,0.0,meteohub,2013-01-27 05:02:00,
2013-01-27 00:07:00,16.9,8.2,30.38,ENE,69,0.0,5.0,68,0.00,,,0.00,0.0,meteohub,2013-01-27 05:07:00,
2013-01-27 00:12:00,16.7,7.7,30.38,South,188,0.0,3.0,67,0.00,,,0.00,0.0,meteohub,2013-01-27 05:12:00,
2013-01-27 00:17:00,16.7,8.1,30.37,South,185,0.0,3.0,68,0.00,,,0.00,0.0,meteohub,2013-01-27 05:17:00,
2013-01-27 00:22:00,16.3,7.7,30.37,NNE,19,2.0,3.0,68,0.00,,,0.00,0.0,meteohub,2013-01-27 05:22:00,
2013-01-27 00:27:00,16.2,7.7,30.37,West,266,2.0,3.0,69,0.00,,,0.00,0.0,meteohub,2013-01-27 05:27:00,
2013-01-27 00:32:00,15.8,7.7,30.37,North,355,2.0,3.0,70,0.00,,,0.00,0.0,meteohub,2013-01-27 05:32:00,
2013-01-27 00:37:00,15.8,7.7,30.37,East,84,0.0,3.0,70,0.00,,,0.00,0.0,meteohub,2013-01-27 05:37:00,
2013-01-27 00:42:00,16.0,7.9,30.37,WSW,253,0.0,3.0,70,0.00,,,0.00,0.0,meteohub,2013-01-27 05:42:00,
2013-01-27 00:47:00,16.2,8.4,30.37,WSW,255,1.0,5.0,71,0.00,,,0.00,0.0,meteohub,2013-01-27 05:47:00,
2013-01-27 00:53:00,16.2,8.1,30.37,South,170,0.0,5.0,70,0.00,,,0.00,0.0,meteohub,2013-01-27 05:53:00,
2013-01-27 00:58:00,16.2,8.4,30.37,ENE,75,0.0,5.0,71,0.00,,,0.00,0.0,meteohub,2013-01-27 05:58:00,
2013-01-27 01:03:00,16.0,7.9,30.37,ENE,76,0.0,3.0,70,0.00,,,0.00,0.0,meteohub,2013-01-27 06:03:00,
2013-01-27 01:08:00,16.3,8.2,30.37,SW,228,0.0,2.0,70,0.00,,,0.00,0.0,meteohub,2013-01-27 06:08:00,
2013-01-27 01:13:00,17.1,9.0,30.37,SSW,211,1.0,8.0,70,0.00,,,0.00,0.0,meteohub,2013-01-27 06:13:00,
2013-01-27 01:18:00,17.8,9.7,30.37,South,188,1.0,8.0,70,0.00,,,0.00,0.0,meteohub,2013-01-27 06:18:00,
2013-01-27 01:23:00,18.0,9.5,30.38,ENE,61,1.0,7.0,69,0.00,,,0.00,0.0,meteohub,2013-01-27 06:23:00,
2013-01-27 01:28:00,17.4,8.6,30.38,East,83,1.0,6.0,68,0.00,,,0.00,0.0,meteohub,2013-01-27 06:28:00,
2013-01-27 01:33:00,17.1,8.2,30.37,SSE,148,0.0,6.0,68,0.00,,,0.00,0.0,meteohub,2013-01-27 06:33:00,
2013-01-27 01:38:00,16.5,8.1,30.38,SE,138,1.0,3.0,69,0.00,,,0.00,0.0,meteohub,2013-01-27 06:38:00,
2013-01-27 01:43:00,16.2,8.1,30.38,East,94,0.0,6.0,70,0.00,,,0.00,0.0,meteohub,2013-01-27 06:43:00,
2013-01-27 01:49:00,16.0,8.2,30.38,East,90,0.0,6.0,71,0.00,,,0.00,0.0,meteohub,2013-01-27 06:49:00,
2013-01-27 01:54:00,15.6,7.9,30.38,East,90,0.0,6.0,71,0.00,,,0.00,0.0,meteohub,2013-01-27 06:54:00,
2013-01-27 01:59:00,15.4,8.1,30.38,East,90,0.0,3.0,72,0.00,,,0.00,0.0,meteohub,2013-01-27 06:59:00,
2013-01-27 02:04:00,15.1,8.1,30.39,East,98,0.0,1.0,73,0.00,,,0.00,0.0,meteohub,2013-01-27 07:04:00,
2013-01-27 02:09:00,14.7,7.9,30.39,East,98,0.0,1.0,74,0.00,,,0.00,0.0,meteohub,2013-01-27 07:09:00,
2013-01-27 02:14:00,14.4,7.5,30.39,East,98,0.0,1.0,74,0.00,,,0.00,0.0,meteohub,2013-01-27 07:14:00,
2013-01-27 02:19:00,13.8,7.3,30.40,SW,217,0.0,1.0,75,0.00,,,0.00,0.0,meteohub,2013-01-27 07:19:00,
2013-01-27 02:24:00,13.6,7.5,30.40,WSW,249,0.0,2.0,76,0.00,,,0.00,0.0,meteohub,2013-01-27 07:24:00,
2013-01-27 02:29:00,13.5,7.3,30.40,South,182,0.0,6.0,76,0.00,,,0.00,0.0,meteohub,2013-01-27 07:29:00,
2013-01-27 02:34:00,13.5,7.5,30.40,South,182,0.0,6.0,77,0.00,,,0.00,0.0,meteohub,2013-01-27 07:34:00,
2013-01-27 02:39:00,13.5,7.5,30.40,South,182,0.0,6.0,77,0.00,,,0.00,0.0,meteohub,2013-01-27 07:39:00,
2013-01-27 02:44:00,13.3,7.7,30.40,ENE,74,0.0,1.0,78,0.00,,,0.00,0.0,meteohub,2013-01-27 07:44:00,
2013-01-27 02:50:00,12.9,7.3,30.41,WNW,286,1.0,2.0,78,0.00,,,0.00,0.0,meteohub,2013-01-27 07:50:00,
2013-01-27 02:55:00,12.7,7.5,30.41,NE,56,1.0,2.0,79,0.00,,,0.00,0.0,meteohub,2013-01-27 07:55:00,
2013-01-27 03:00:00,12.9,7.9,30.41,ESE,105,0.0,7.0,80,0.00,,,0.00,0.0,meteohub,2013-01-27 08:00:00,
2013-01-27 03:05:00,12.7,7.5,30.41,NW,314,0.0,7.0,79,0.00,,,0.00,0.0,meteohub,2013-01-27 08:05:00,
2013-01-27 03:10:00,12.6,7.9,30.41,ENE,64,0.0,7.0,81,0.00,,,0.00,0.0,meteohub,2013-01-27 08:10:00,
2013-01-27 03:15:00,12.7,8.1,30.40,WSW,253,3.0,3.0,81,0.00,,,0.00,0.0,meteohub,2013-01-27 08:15:00,
2013-01-27 03:20:00,12.9,7.9,30.40,SSW,192,0.0,4.0,80,0.00,,,0.00,0.0,meteohub,2013-01-27 08:20:00,
2013-01-27 03:25:00,12.9,7.9,30.41,West,269,0.0,4.0,80,0.00,,,0.00,0.0,meteohub,2013-01-27 08:25:00,
2013-01-27 03:30:00,12.9,7.9,30.41,West,281,0.0,3.0,80,0.00,,,0.00,0.0,meteohub,2013-01-27 08:30:00,
2013-01-27 03:35:00,12.9,7.9,30.41,East,81,0.0,3.0,80,0.00,,,0.00,0.0,meteohub,2013-01-27 08:35:00,
2013-01-27 03:40:00,13.1,8.1,30.41,East,86,0.0,2.0,80,0.00,,,0.00,0.0,meteohub,2013-01-27 08:40:00,
2013-01-27 03:45:00,13.3,8.2,30.41,East,86,1.0,2.0,80,0.00,,,0.00,0.0,meteohub,2013-01-27 08:45:00,
2013-01-27 03:50:00,12.9,7.9,30.41,East,89,0.0,2.0,80,0.00,,,0.00,0.0,meteohub,2013-01-27 08:50:00,
2013-01-27 03:56:00,12.7,8.1,30.41,SW,214,0.0,2.0,81,0.00,,,0.00,0.0,meteohub,2013-01-27 08:56:00,
2013-01-27 04:01:00,12.7,8.1,30.42,SSW,209,0.0,2.0,81,0.00,,,0.00,0.0,meteohub,2013-01-27 09:01:00,
2013-01-27 04:06:00,12.7,8.1,30.42,SSW,209,0.0,2.0,81,0.00,,,0.00,0.0,meteohub,2013-01-27 09:06:00,
2013-01-27 04:11:00,12.7,8.1,30.42,SSW,209,0.0,2.0,81,0.00,,,0.00,0.0,meteohub,2013-01-27 09:11:00,
2013-01-27 04:16:00,12.7,8.1,30.42,SSW,209,0.0,2.0,81,0.00,,,0.00,0.0,meteohub,2013-01-27 09:16:00,
2013-01-27 04:21:00,12.7,8.1,30.42,SSW,209,0.0,2.0,81,0.00,,,0.00,0.0,meteohub,2013-01-27 09:21:00,
2013-01-27 04:26:00,12.7,8.2,30.41,SSW,209,0.0,1.0,82,0.00,,,0.00,0.0,meteohub,2013-01-27 09:26:00,
2013-01-27 04:31:00,12.6,8.1,30.42,SSW,213,0.0,2.0,82,0.00,,,0.00,0.0,meteohub,2013-01-27 09:31:00,
2013-01-27 04:36:00,12.6,8.1,30.42,East,80,0.0,2.0,82,0.00,,,0.00,0.0,meteohub,2013-01-27 09:36:00,
2013-01-27 04:41:00,12.6,8.1,30.42,NNW,336,0.0,2.0,82,0.00,,,0.00,0.0,meteohub,2013-01-27 09:41:00,
2013-01-27 04:46:00,12.7,8.6,30.42,North,0,0.0,2.0,83,0.00,,,0.00,0.0,meteohub,2013-01-27 09:46:00,
2013-01-27 04:51:00,12.7,8.6,30.42,North,349,0.0,2.0,83,0.00,,,0.00,0.0,meteohub,2013-01-27 09:51:00,
2013-01-27 04:56:00,12.7,8.6,30.42,NE,43,0.0,2.0,83,0.00,,,0.00,0.0,meteohub,2013-01-27 09:56:00,
2013-01-27 05:02:00,12.7,8.6,30.42,SSW,202,0.0,3.0,83,0.00,,,0.00,0.0,meteohub,2013-01-27 10:02:00,
2013-01-27 05:07:00,12.9,8.8,30.43,SSE,159,0.0,3.0,83,0.00,,,0.00,0.0,meteohub,2013-01-27 10:07:00,
2013-01-27 05:12:00,13.1,9.0,30.43,East,90,0.0,3.0,83,0.00,,,0.00,0.0,meteohub,2013-01-27 10:12:00,
2013-01-27 05:17:00,13.1,9.0,30.43,SW,230,1.0,3.0,83,0.00,,,0.00,0.0,meteohub,2013-01-27 10:17:00,
2013-01-27 05:22:00,13.3,9.1,30.42,SW,225,0.0,3.0,83,0.00,,,0.00,0.0,meteohub,2013-01-27 10:22:00,
2013-01-27 05:27:00,13.3,9.1,30.43,SW,225,0.0,3.0,83,0.00,,,0.00,0.0,meteohub,2013-01-27 10:27:00,
2013-01-27 05:32:00,13.5,9.3,30.42,NE,51,0.0,1.0,83,0.00,,,0.00,0.0,meteohub,2013-01-27 10:32:00,
2013-01-27 05:37:00,13.8,9.7,30.43,NE,40,2.0,5.0,83,0.00,,,0.00,0.0,meteohub,2013-01-27 10:37:00,
2013-01-27 05:42:00,14.4,9.9,30.43,East,83,1.0,5.0,82,0.00,,,0.00,0.0,meteohub,2013-01-27 10:42:00,
2013-01-27 05:47:00,14.7,10.0,30.43,East,83,0.0,5.0,81,0.00,,,0.00,0.0,meteohub,2013-01-27 10:47:00,
2013-01-27 05:52:00,14.5,9.9,30.43,ESE,113,0.0,2.0,81,0.00,,,0.00,0.0,meteohub,2013-01-27 10:52:00,
2013-01-27 05:57:00,14.4,9.9,30.43,ESE,111,0.0,2.0,82,0.00,,,0.00,0.0,meteohub,2013-01-27 10:57:00,
2013-01-27 06:02:00,14.2,9.7,30.44,SW,227,0.0,2.0,82,0.00,,,0.00,0.0,meteohub,2013-01-27 11:02:00,
2013-01-27 06:07:00,14.2,9.7,30.44,SW,227,0.0,2.0,82,0.00,,,0.00,0.0,meteohub,2013-01-27 11:07:00,
2013-01-27 06:12:00,13.8,9.3,30.44,ENE,65,0.0,2.0,82,0.00,,,0.00,0.0,meteohub,2013-01-27 11:12:00,
2013-01-27 06:17:00,13.6,9.5,30.45,SSE,158,0.0,2.0,83,0.00,,,0.00,0.0,meteohub,2013-01-27 11:17:00,
2013-01-27 06:22:00,13.6,9.5,30.45,SSE,158,0.0,2.0,83,0.00,,,0.00,0.0,meteohub,2013-01-27 11:22:00,
2013-01-27 06:27:00,13.6,9.5,30.45,SSE,158,0.0,1.0,83,0.00,,,0.00,0.0,meteohub,2013-01-27 11:27:00,
2013-01-27 06:32:00,13.5,9.3,30.45,ESE,117,0.0,1.0,83,0.00,,,0.00,0.0,meteohub,2013-01-27 11:32:00,
2013-01-27 06:37:00,13.3,9.1,30.45,SW,223,2.0,2.0,83,0.00,,,0.00,0.0,meteohub,2013-01-27 11:37:00,
2013-01-27 06:42:00,12.9,8.8,30.45,SW,223,0.0,3.0,83,0.00,,,0.00,0.0,meteohub,2013-01-27 11:42:00,
2013-01-27 06:47:00,12.7,8.8,30.45,SE,140,1.0,3.0,84,0.00,,,0.00,0.0,meteohub,2013-01-27 11:47:00,
2013-01-27 06:52:00,12.7,9.1,30.45,SW,219,0.0,3.0,85,0.00,,,0.00,0.0,meteohub,2013-01-27 11:52:00,
2013-01-27 06:57:00,12.7,8.8,30.46,SW,219,0.0,4.0,84,0.00,,,0.00,0.0,meteohub,2013-01-27 11:57:00,
2013-01-27 07:02:00,12.4,8.4,30.46,SW,225,0.0,4.0,84,0.00,,,0.00,0.0,meteohub,2013-01-27 12:02:00,
2013-01-27 07:07:00,12.2,8.6,30.46,SW,218,0.0,4.0,85,0.00,,,0.00,0.0,meteohub,2013-01-27 12:07:00,
2013-01-27 07:12:00,12.2,8.6,30.46,ESE,123,0.0,2.0,85,0.00,,,0.00,0.0,meteohub,2013-01-27 12:12:00,
2013-01-27 07:17:00,12.0,8.4,30.47,ESE,114,0.0,2.0,85,0.00,,,0.00,5.0,meteohub,2013-01-27 12:17:00,
2013-01-27 07:22:00,12.2,8.6,30.47,East,101,1.0,2.0,85,0.00,,,0.00,7.0,meteohub,2013-01-27 12:22:00,
2013-01-27 07:27:00,12.4,9.0,30.47,NNE,22,3.0,3.0,86,0.00,,,0.00,9.0,meteohub,2013-01-27 12:27:00,
2013-01-27 07:32:00,12.7,9.1,30.47,NE,44,0.0,3.0,85,0.00,,,0.00,11.0,meteohub,2013-01-27 12:32:00,
2013-01-27 07:37:00,12.7,9.1,30.48,ENE,60,0.0,3.0,85,0.00,,,0.00,12.0,meteohub,2013-01-27 12:37:00,
2013-01-27 07:42:00,13.1,9.5,30.48,SSE,150,0.0,3.0,85,0.00,,,0.00,14.0,meteohub,2013-01-27 12:42:00,
2013-01-27 07:47:00,13.1,9.1,30.48,SE,134,1.0,3.0,84,0.00,,,0.00,18.0,meteohub,2013-01-27 12:47:00,
2013-01-27 07:52:00,13.1,9.1,30.48,WSW,250,2.0,3.0,84,0.00,,,0.00,19.0,meteohub,2013-01-27 12:52:00,
2013-01-27 07:57:00,13.6,9.5,30.48,West,269,2.0,7.0,83,0.00,,,0.00,21.0,meteohub,2013-01-27 12:57:00,
2013-01-27 08:02:00,14.7,10.2,30.48,NNE,25,1.0,7.0,82,0.00,,,0.00,23.0,meteohub,2013-01-27 13:02:00,
2013-01-27 08:07:00,14.9,10.2,30.48,NE,51,1.0,7.0,81,0.00,,,0.00,23.0,meteohub,2013-01-27 13:07:00,
2013-01-27 08:12:00,14.9,10.2,30.48,ENE,57,1.0,5.0,81,0.00,,,0.00,25.0,meteohub,2013-01-27 13:12:00,
2013-01-27 08:17:00,15.1,10.2,30.48,ENE,57,0.0,3.0,81,0.00,,,0.00,26.0,meteohub,2013-01-27 13:17:00,
2013-01-27 08:22:00,15.3,10.4,30.49,East,82,0.0,3.0,81,0.00,,,0.00,26.0,meteohub,2013-01-27 13:22:00,
2013-01-27 08:27:00,15.3,10.4,30.48,East,82,0.0,3.0,81,0.00,,,0.00,28.0,meteohub,2013-01-27 13:27:00,
2013-01-27 08:32:00,15.3,10.8,30.49,SSW,212,1.0,3.0,82,0.00,,,0.00,30.0,meteohub,2013-01-27 13:32:00,
2013-01-27 08:37:00,15.4,10.9,30.49,South,174,1.0,2.0,82,0.00,,,0.00,32.0,meteohub,2013-01-27 13:37:00,
2013-01-27 08:42:00,16.2,11.1,30.49,North,355,0.0,3.0,80,0.00,,,0.00,32.0,meteohub,2013-01-27 13:42:00,
2013-01-27 08:47:00,17.1,11.1,30.49,NE,42,0.0,3.0,77,0.00,,,0.00,32.0,meteohub,2013-01-27 13:47:00,
2013-01-27 08:52:00,18.0,11.3,30.50,NE,49,0.0,3.0,75,0.00,,,0.00,33.0,meteohub,2013-01-27 13:52:00,
2013-01-27 08:57:00,18.7,11.1,30.49,NE,45,0.0,3.0,72,0.00,,,0.00,33.0,meteohub,2013-01-27 13:57:00,
2013-01-27 09:02:00,19.4,10.9,30.50,SSW,212,4.0,4.0,69,0.00,,,0.00,33.0,meteohub,2013-01-27 14:02:00,
2013-01-27 09:07:00,20.5,10.6,30.49,WSW,238,1.0,8.0,65,0.00,,,0.00,33.0,meteohub,2013-01-27 14:07:00,
2013-01-27 09:12:00,21.0,10.4,30.50,WSW,256,2.0,8.0,63,0.00,,,0.00,35.0,meteohub,2013-01-27 14:12:00,
2013-01-27 09:17:00,21.7,10.0,30.50,ENE,57,0.0,8.0,60,0.00,,,0.00,35.0,meteohub,2013-01-27 14:17:00,
2013-01-27 09:22:00,22.3,10.2,30.50,WSW,237,0.0,7.0,59,0.00,,,0.00,35.0,meteohub,2013-01-27 14:22:00,
2013-01-27 09:27:00,22.6,10.4,30.50,North,355,1.0,7.0,59,0.00,,,0.00,37.0,meteohub,2013-01-27 14:27:00,
2013-01-27 09:32:00,23.0,10.4,30.50,West,266,2.0,10.0,58,0.00,,,0.00,37.0,meteohub,2013-01-27 14:32:00,
2013-01-27 09:37:00,23.4,9.1,30.50,SE,137,0.0,10.0,54,0.00,,,0.00,37.0,meteohub,2013-01-27 14:37:00,
2013-01-27 09:42:00,23.4,9.5,30.51,West,279,0.0,10.0,55,0.00,,,0.00,37.0,meteohub,2013-01-27 14:42:00,
2013-01-27 09:47:00,23.5,9.3,30.51,SW,231,0.0,7.0,54,0.00,,,0.00,37.0,meteohub,2013-01-27 14:47:00,
2013-01-27 09:52:00,23.7,9.1,30.51,WSW,253,0.0,4.0,53,0.00,,,0.00,65.0,meteohub,2013-01-27 14:52:00,
2013-01-27 09:57:00,24.1,8.1,30.51,SSW,194,2.0,4.0,50,0.00,,,0.00,127.0,meteohub,2013-01-27 14:57:00,
2013-01-27 10:02:00,24.3,7.9,30.51,West,262,3.0,10.0,49,0.00,,,0.00,316.0,meteohub,2013-01-27 15:02:00,
2013-01-27 10:07:00,24.6,8.6,30.51,West,263,0.0,10.0,50,0.00,,,0.00,232.0,meteohub,2013-01-27 15:07:00,
2013-01-27 10:12:00,25.0,7.5,30.51,WSW,246,2.0,10.0,47,0.00,,,0.00,190.0,meteohub,2013-01-27 15:12:00,
2013-01-27 10:17:00,25.2,7.7,30.52,NW,318,2.0,10.0,47,0.00,,,0.00,271.0,meteohub,2013-01-27 15:17:00,
2013-01-27 10:22:00,25.3,7.9,30.52,WNW,296,0.0,10.0,47,0.00,,,0.00,311.0,meteohub,2013-01-27 15:22:00,
2013-01-27 10:27:00,25.7,7.3,30.52,SSW,195,6.0,10.0,45,0.00,,,0.00,283.0,meteohub,2013-01-27 15:27:00,
2013-01-27 10:32:00,25.9,7.9,30.52,WSW,252,2.0,13.0,46,0.00,,,0.00,278.0,meteohub,2013-01-27 15:32:00,
2013-01-27 10:37:00,26.2,7.7,30.53,WSW,257,3.0,13.0,45,0.00,,,0.00,297.0,meteohub,2013-01-27 15:37:00,
2013-01-27 10:42:00,26.4,7.0,30.52,WSW,241,0.0,13.0,43,0.00,,,0.00,378.0,meteohub,2013-01-27 15:42:00,
2013-01-27 10:47:00,26.6,7.7,30.53,SSW,201,6.0,12.0,44,0.00,,,0.00,315.0,meteohub,2013-01-27 15:47:00,
2013-01-27 10:52:00,26.8,7.7,30.52,North,11,1.0,13.0,44,0.00,,,0.00,211.0,meteohub,2013-01-27 15:52:00,
2013-01-27 10:57:00,27.0,8.4,30.53,West,269,0.0,13.0,45,0.00,,,0.00,258.0,meteohub,2013-01-27 15:57:00,
2013-01-27 11:02:00,27.3,7.2,30.53,WSW,240,4.0,13.0,42,0.00,,,0.00,392.0,meteohub,2013-01-27 16:02:00,
2013-01-27 11:07:00,27.3,7.2,30.53,SSE,166,3.0,7.0,42,0.00,,,0.00,229.0,meteohub,2013-01-27 16:07:00,
2013-01-27 11:12:00,27.5,6.8,30.52,WSW,238,1.0,7.0,41,0.00,,,0.00,197.0,meteohub,2013-01-27 16:12:00,
2013-01-27 11:17:00,27.7,7.0,30.52,WSW,239,6.0,7.0,41,0.00,,,0.00,244.0,meteohub,2013-01-27 16:17:00,
2013-01-27 11:22:00,27.9,6.1,30.52,ENE,74,0.0,10.0,39,0.00,,,0.00,327.0,meteohub,2013-01-27 16:22:00,
2013-01-27 11:27:00,28.0,5.7,30.52,ENE,76,3.0,10.0,38,0.00,,,0.00,390.0,meteohub,2013-01-27 16:27:00,
2013-01-27 11:32:00,28.2,6.4,30.52,WSW,258,5.0,10.0,39,0.00,,,0.00,446.0,meteohub,2013-01-27 16:32:00,
2013-01-27 11:37:00,28.8,7.0,30.51,WNW,284,3.0,5.0,39,0.00,,,0.00,471.0,meteohub,2013-01-27 16:37:00,
2013-01-27 11:42:00,28.9,6.4,30.51,East,95,0.0,6.0,38,0.00,,,0.00,473.0,meteohub,2013-01-27 16:42:00,
2013-01-27 11:47:00,29.1,6.6,30.51,North,350,0.0,6.0,38,0.00,,,0.00,475.0,meteohub,2013-01-27 16:47:00,
2013-01-27 11:52:00,29.5,5.7,30.51,SW,223,2.0,6.0,36,0.00,,,0.00,476.0,meteohub,2013-01-27 16:52:00,
2013-01-27 11:57:00,29.7,5.9,30.51,NNE,17,0.0,5.0,36,0.00,,,0.00,411.0,meteohub,2013-01-27 16:57:00,
2013-01-27 12:02:00,29.8,5.5,30.51,ENE,73,0.0,3.0,35,0.00,,,0.00,376.0,meteohub,2013-01-27 17:02:00,
2013-01-27 12:07:00,29.8,4.8,30.51,WSW,252,3.0,5.0,34,0.00,,,0.00,334.0,meteohub,2013-01-27 17:07:00,
2013-01-27 12:12:00,29.5,5.7,30.51,SSE,165,1.0,7.0,36,0.00,,,0.00,336.0,meteohub,2013-01-27 17:12:00,
2013-01-27 12:17:00,29.5,4.6,30.51,ESE,109,2.0,8.0,34,0.00,,,0.00,329.0,meteohub,2013-01-27 17:17:00,
2013-01-27 12:22:00,29.5,4.6,30.51,ENE,74,0.0,8.0,34,0.00,,,0.00,294.0,meteohub,2013-01-27 17:22:00,
2013-01-27 12:27:00,29.8,5.5,30.51,WSW,241,2.0,7.0,35,0.00,,,0.00,237.0,meteohub,2013-01-27 17:27:00,
2013-01-27 12:32:00,30.2,5.2,30.50,WSW,245,4.0,7.0,34,0.00,,,0.00,200.0,meteohub,2013-01-27 17:32:00,
2013-01-27 12:37:00,30.6,4.8,30.50,WSW,240,1.0,6.0,33,0.00,,,0.00,339.0,meteohub,2013-01-27 17:37:00,
2013-01-27 12:42:00,30.9,5.2,30.49,North,5,1.0,6.0,33,0.00,,,0.00,251.0,meteohub,2013-01-27 17:42:00,
2013-01-27 12:47:00,31.3,4.8,30.49,SW,227,0.0,6.0,32,0.00,,,0.00,204.0,meteohub,2013-01-27 17:47:00,
2013-01-27 12:52:00,31.5,5.7,30.49,WSW,246,1.0,4.0,33,0.00,,,0.00,236.0,meteohub,2013-01-27 17:52:00,
2013-01-27 12:57:00,31.5,4.3,30.48,SW,218,0.0,5.0,31,0.00,,,0.00,283.0,meteohub,2013-01-27 17:57:00,
2013-01-27 13:02:00,31.5,4.3,30.48,SW,218,0.0,5.0,31,0.00,,,0.00,329.0,meteohub,2013-01-27 18:02:00,
2013-01-27 13:07:00,31.6,5.2,30.48,WNW,288,0.0,5.0,32,0.00,,,0.00,390.0,meteohub,2013-01-27 18:07:00,
2013-01-27 13:12:00,31.8,5.9,30.48,West,269,0.0,3.0,33,0.00,,,0.00,392.0,meteohub,2013-01-27 18:12:00,
2013-01-27 13:17:00,32.0,4.1,30.48,West,269,1.0,3.0,30,0.00,,,0.00,441.0,meteohub,2013-01-27 18:17:00,
2013-01-27 13:22:00,32.2,5.0,30.48,NW,313,0.0,3.0,31,0.00,,,0.00,248.0,meteohub,2013-01-27 18:22:00,
2013-01-27 13:27:00,31.8,3.9,30.48,ENE,65,0.0,4.0,30,0.00,,,0.00,174.0,meteohub,2013-01-27 18:27:00,
2013-01-27 13:32:00,31.8,4.6,30.48,East,93,2.0,4.0,31,0.00,,,0.00,151.0,meteohub,2013-01-27 18:32:00,
2013-01-27 13:37:00,31.8,5.4,30.48,NNW,338,0.0,5.0,32,0.00,,,0.00,118.0,meteohub,2013-01-27 18:37:00,
2013-01-27 13:42:00,31.8,5.4,30.48,NNE,27,1.0,5.0,32,0.00,,,0.00,171.0,meteohub,2013-01-27 18:42:00,
2013-01-27 13:47:00,32.0,4.8,30.48,NNE,13,0.0,6.0,31,0.00,,,0.00,49.0,meteohub,2013-01-27 18:47:00,
2013-01-27 13:52:00,32.2,5.0,30.48,NE,50,3.0,6.0,31,0.00,,,0.00,271.0,meteohub,2013-01-27 18:52:00,
2013-01-27 13:57:00,32.2,5.5,30.48,SSE,156,2.0,6.0,32,0.00,,,0.00,253.0,meteohub,2013-01-27 18:57:00,
2013-01-27 14:02:00,32.2,5.0,30.48,NE,35,3.0,5.0,31,0.00,,,0.00,243.0,meteohub,2013-01-27 19:02:00,
2013-01-27 14:07:00,32.2,5.0,30.48,SW,235,0.0,4.0,31,0.00,,,0.00,204.0,meteohub,2013-01-27 19:07:00,
2013-01-27 14:12:00,32.4,5.0,30.48,WSW,238,0.0,4.0,31,0.00,,,0.00,211.0,meteohub,2013-01-27 19:12:00,
2013-01-27 14:17:00,32.4,4.5,30.48,SSW,200,0.0,4.0,30,0.00,,,0.00,213.0,meteohub,2013-01-27 19:17:00,
2013-01-27 14:22:00,32.5,4.5,30.48,SSW,212,0.0,4.0,30,0.00,,,0.00,246.0,meteohub,2013-01-27 19:22:00,
2013-01-27 14:27:00,32.5,5.2,30.48,West,271,0.0,6.0,31,0.00,,,0.00,83.0,meteohub,2013-01-27 19:27:00,
2013-01-27 14:32:00,32.5,3.7,30.48,SW,234,2.0,6.0,29,0.00,,,0.00,156.0,meteohub,2013-01-27 19:32:00,
2013-01-27 14:37:00,32.7,5.4,30.48,WSW,239,4.0,7.0,31,0.00,,,0.00,156.0,meteohub,2013-01-27 19:37:00,
2013-01-27 14:42:00,32.9,5.5,30.48,WSW,248,0.0,7.0,31,0.00,,,0.00,209.0,meteohub,2013-01-27 19:42:00,
2013-01-27 14:47:00,32.9,5.5,30.48,WSW,242,1.0,5.0,31,0.00,,,0.00,165.0,meteohub,2013-01-27 19:47:00,
2013-01-27 14:52:00,33.1,5.0,30.48,WSW,250,3.0,5.0,30,0.00,,,0.00,149.0,meteohub,2013-01-27 19:52:00,
2013-01-27 14:57:00,33.3,5.2,30.48,WSW,251,1.0,5.0,30,0.00,,,0.00,188.0,meteohub,2013-01-27 19:57:00,
2013-01-27 15:02:00,33.1,3.6,30.48,SW,235,3.0,5.0,28,0.00,,,0.00,88.0,meteohub,2013-01-27 20:02:00,
2013-01-27 15:07:00,33.1,3.6,30.48,WSW,256,0.0,6.0,28,0.00,,,0.00,127.0,meteohub,2013-01-27 20:07:00,
2013-01-27 15:12:00,33.1,3.6,30.48,WSW,240,0.0,6.0,28,0.00,,,0.00,30.0,meteohub,2013-01-27 20:12:00,
2013-01-27 15:17:00,32.5,3.7,30.48,WNW,287,0.0,6.0,29,0.00,,,0.00,44.0,meteohub,2013-01-27 20:17:00,
2013-01-27 15:22:00,32.4,4.5,30.48,West,269,1.0,6.0,30,0.00,,,0.00,56.0,meteohub,2013-01-27 20:22:00,
2013-01-27 15:27:00,32.2,5.0,30.48,West,275,0.0,4.0,31,0.00,,,0.00,32.0,meteohub,2013-01-27 20:27:00,
2013-01-27 15:32:00,32.0,6.8,30.48,West,279,0.0,4.0,34,0.00,,,0.00,28.0,meteohub,2013-01-27 20:32:00,
2013-01-27 15:37:00,31.6,5.9,30.48,WSW,257,1.0,4.0,33,0.00,,,0.00,32.0,meteohub,2013-01-27 20:37:00,
2013-01-27 15:42:00,31.6,5.9,30.48,West,273,0.0,4.0,33,0.00,,,0.00,40.0,meteohub,2013-01-27 20:42:00,
2013-01-27 15:47:00,31.6,5.2,30.48,WSW,242,2.0,4.0,32,0.00,,,0.00,25.0,meteohub,2013-01-27 20:47:00,
2013-01-27 15:52:00,31.6,4.5,30.48,SW,234,1.0,3.0,31,0.00,,,0.00,25.0,meteohub,2013-01-27 20:52:00,
2013-01-27 15:57:00,31.6,7.7,30.49,WSW,240,0.0,3.0,36,0.00,,,0.00,23.0,meteohub,2013-01-27 20:57:00,
2013-01-27 16:02:00,31.3,6.1,30.51,WSW,240,0.0,3.0,34,0.00,,,0.00,21.0,meteohub,2013-01-27 21:02:00,
2013-01-27 16:07:00,31.3,5.5,30.51,WSW,245,0.0,3.0,33,0.00,,,0.00,23.0,meteohub,2013-01-27 21:07:00,
2013-01-27 16:12:00,30.9,3.7,30.50,WSW,245,0.0,5.0,31,0.00,,,0.00,16.0,meteohub,2013-01-27 21:12:00,
2013-01-27 16:17:00,30.9,3.2,30.51,West,279,1.0,5.0,30,0.00,,,0.00,12.0,meteohub,2013-01-27 21:17:00,
2013-01-27 16:22:00,30.7,3.7,30.50,West,271,0.0,3.0,31,0.00,,,0.00,11.0,meteohub,2013-01-27 21:22:00,
2013-01-27 16:27:00,30.6,4.3,30.49,West,271,0.0,3.0,32,0.00,,,0.00,9.0,meteohub,2013-01-27 21:27:00,
2013-01-27 16:32:00,30.4,6.6,30.50,West,271,0.0,2.0,36,0.00,,,0.00,7.0,meteohub,2013-01-27 21:32:00,
2013-01-27 16:37:00,29.8,5.5,30.50,West,264,0.0,1.0,35,0.00,,,0.00,7.0,meteohub,2013-01-27 21:37:00,
2013-01-27 16:42:00,29.7,8.8,30.50,West,264,0.0,1.0,41,0.00,,,0.00,7.0,meteohub,2013-01-27 21:42:00,
2013-01-27 16:47:00,29.1,9.9,30.51,West,264,0.0,1.0,44,0.00,,,0.00,5.0,meteohub,2013-01-27 21:47:00,
2013-01-27 16:52:00,28.8,8.1,30.51,West,264,0.0,0.0,41,0.00,,,0.00,5.0,meteohub,2013-01-27 21:52:00,
2013-01-27 16:57:00,28.4,5.4,30.51,West,264,0.0,2.0,37,0.00,,,0.00,0.0,meteohub,2013-01-27 21:57:00,
2013-01-27 17:02:00,28.2,6.4,30.51,West,264,0.0,2.0,39,0.00,,,0.00,0.0,meteohub,2013-01-27 22:02:00,
2013-01-27 17:07:00,28.0,8.4,30.51,West,262,0.0,2.0,43,0.00,,,0.00,0.0,meteohub,2013-01-27 22:07:00,
2013-01-27 17:12:00,27.7,6.4,30.51,West,262,0.0,2.0,40,0.00,,,0.00,0.0,meteohub,2013-01-27 22:12:00,
2013-01-27 17:17:00,27.5,5.7,30.51,West,262,0.0,2.0,39,0.00,,,0.00,0.0,meteohub,2013-01-27 22:17:00,
2013-01-27 17:22:00,27.3,6.8,30.51,West,262,0.0,2.0,41,0.00,,,0.00,0.0,meteohub,2013-01-27 22:22:00,
2013-01-27 17:27:00,27.1,8.1,30.51,West,262,0.0,0.0,44,0.00,,,0.00,0.0,meteohub,2013-01-27 22:27:00,
2013-01-27 17:32:00,27.0,7.9,30.51,West,262,0.0,0.0,44,0.00,,,0.00,0.0,meteohub,2013-01-27 22:32:00,
2013-01-27 17:37:00,26.8,8.2,30.51,West,262,0.0,0.0,45,0.00,,,0.00,0.0,meteohub,2013-01-27 22:37:00,
2013-01-27 17:42:00,26.2,10.2,30.51,West,262,0.0,1.0,50,0.00,,,0.00,0.0,meteohub,2013-01-27 22:42:00,
2013-01-27 17:47:00,26.1,9.5,30.51,West,261,0.0,3.0,49,0.00,,,0.00,0.0,meteohub,2013-01-27 22:47:00,
2013-01-27 17:52:00,25.9,10.2,30.51,West,261,0.0,3.0,51,0.00,,,0.00,0.0,meteohub,2013-01-27 22:52:00,
2013-01-27 17:57:00,25.7,10.6,30.50,West,261,0.0,3.0,52,0.00,,,0.00,0.0,meteohub,2013-01-27 22:57:00,
2013-01-27 18:02:00,25.5,9.9,30.51,West,261,0.0,2.0,51,0.00,,,0.00,0.0,meteohub,2013-01-27 23:02:00,
2013-01-27 18:07:00,25.5,9.5,30.51,SW,231,0.0,1.0,50,0.00,,,0.00,0.0,meteohub,2013-01-27 23:07:00,
2013-01-27 18:12:00,25.7,9.7,30.51,WSW,244,0.0,6.0,50,0.00,,,0.00,0.0,meteohub,2013-01-27 23:12:00,
2013-01-27 18:17:00,25.9,8.4,30.52,WSW,250,0.0,6.0,47,0.00,,,0.00,0.0,meteohub,2013-01-27 23:17:00,
2013-01-27 18:22:00,25.9,9.9,30.52,NW,304,0.0,6.0,50,0.00,,,0.00,0.0,meteohub,2013-01-27 23:22:00,
2013-01-27 18:27:00,25.9,9.3,30.53,WNW,288,0.0,4.0,49,0.00,,,0.00,0.0,meteohub,2013-01-27 23:27:00,
2013-01-27 18:32:00,25.9,7.9,30.52,NW,308,0.0,2.0,46,0.00,,,0.00,0.0,meteohub,2013-01-27 23:32:00,
2013-01-27 18:37:00,26.1,8.1,30.52,South,172,1.0,2.0,46,0.00,,,0.00,0.0,meteohub,2013-01-27 23:37:00,
2013-01-27 18:42:00,26.4,7.0,30.52,NNW,331,0.0,3.0,43,0.00,,,0.00,0.0,meteohub,2013-01-27 23:42:00,
2013-01-27 18:47:00,27.0,7.5,30.52,NNW,331,1.0,5.0,43,0.00,,,0.00,0.0,meteohub,2013-01-27 23:47:00,
2013-01-27 18:52:00,27.0,6.4,30.52,NNE,32,2.0,5.0,41,0.00,,,0.00,0.0,meteohub,2013-01-27 23:52:00,
2013-01-27 18:57:00,27.3,5.5,30.52,NNE,29,0.0,4.0,39,0.00,,,0.00,0.0,meteohub,2013-01-27 23:57:00,
2013-01-27 19:02:00,27.3,5.5,30.52,NNW,337,0.0,3.0,39,0.00,,,0.00,0.0,meteohub,2013-01-28 00:02:00,
2013-01-27 19:07:00,27.3,8.2,30.52,NNW,337,0.0,3.0,44,0.00,,,0.00,0.0,meteohub,2013-01-28 00:07:00,
2013-01-27 19:12:00,27.0,7.5,30.52,NNW,337,0.0,2.0,43,0.00,,,0.00,0.0,meteohub,2013-01-28 00:12:00,
2013-01-27 19:17:00,26.8,6.3,30.53,NNW,337,0.0,0.0,41,0.00,,,0.00,0.0,meteohub,2013-01-28 00:17:00,
2013-01-27 19:22:00,26.4,7.0,30.52,ENE,62,0.0,1.0,43,0.00,,,0.00,0.0,meteohub,2013-01-28 00:22:00,
2013-01-27 19:27:00,26.2,6.3,30.51,ENE,62,0.0,2.0,42,0.00,,,0.00,0.0,meteohub,2013-01-28 00:27:00,
2013-01-27 19:32:00,26.1,7.2,30.51,ENE,62,0.0,2.0,44,0.00,,,0.00,0.0,meteohub,2013-01-28 00:32:00,
2013-01-27 19:37:00,25.9,9.0,30.51,ESE,102,0.0,2.0,48,0.00,,,0.00,0.0,meteohub,2013-01-28 00:37:00,
2013-01-27 19:42:00,25.9,5.9,30.51,SW,220,5.0,5.0,42,0.00,,,0.00,0.0,meteohub,2013-01-28 00:42:00,
2013-01-27 19:47:00,26.2,6.3,30.52,SSE,158,1.0,6.0,42,0.00,,,0.00,0.0,meteohub,2013-01-28 00:47:00,
2013-01-27 19:52:00,26.2,7.7,30.52,East,96,0.0,6.0,45,0.00,,,0.00,0.0,meteohub,2013-01-28 00:52:00,
2013-01-27 19:57:00,25.9,7.9,30.52,East,96,0.0,6.0,46,0.00,,,0.00,0.0,meteohub,2013-01-28 00:57:00,
2013-01-27 20:02:00,25.5,8.1,30.52,SW,225,1.0,3.0,47,0.00,,,0.00,0.0,meteohub,2013-01-28 01:02:00,
2013-01-27 20:07:00,25.3,7.0,30.52,SW,225,0.0,2.0,45,0.00,,,0.00,0.0,meteohub,2013-01-28 01:07:00,
2013-01-27 20:12:00,25.2,7.3,30.51,SW,224,0.0,2.0,46,0.00,,,0.00,0.0,meteohub,2013-01-28 01:12:00,
2013-01-27 20:17:00,25.0,6.6,30.51,SW,224,0.0,2.0,45,0.00,,,0.00,0.0,meteohub,2013-01-28 01:17:00,
2013-01-27 20:22:00,24.8,7.9,30.51,SW,224,0.0,1.0,48,0.00,,,0.00,0.0,meteohub,2013-01-28 01:22:00,
2013-01-27 20:27:00,24.6,9.5,30.52,SW,224,0.0,0.0,52,0.00,,,0.00,0.0,meteohub,2013-01-28 01:27:00,
2013-01-27 20:32:00,24.3,5.9,30.52,SW,224,0.0,1.0,45,0.00,,,0.00,0.0,meteohub,2013-01-28 01:32:00,
2013-01-27 20:37:00,24.3,7.9,30.52,SW,224,0.0,1.0,49,0.00,,,0.00,0.0,meteohub,2013-01-28 01:37:00,
2013-01-27 20:42:00,24.3,9.7,30.52,SW,224,0.0,1.0,53,0.00,,,0.00,0.0,meteohub,2013-01-28 01:42:00,
2013-01-27 20:47:00,23.9,7.5,30.51,SW,224,0.0,1.0,49,0.00,,,0.00,0.0,meteohub,2013-01-28 01:47:00,
2013-01-27 20:52:00,23.7,7.3,30.51,SW,224,0.0,1.0,49,0.00,,,0.00,0.0,meteohub,2013-01-28 01:52:00,
2013-01-27 20:57:00,23.5,7.2,30.51,SW,224,0.0,0.0,49,0.00,,,0.00,0.0,meteohub,2013-01-28 01:57:00,
2013-01-27 21:02:00,23.4,9.1,30.51,SW,229,0.0,0.0,54,0.00,,,0.00,0.0,meteohub,2013-01-28 02:02:00,
2013-01-27 21:07:00,23.0,5.7,30.51,SW,229,0.0,1.0,47,0.00,,,0.00,0.0,meteohub,2013-01-28 02:07:00,
2013-01-27 21:12:00,22.8,7.9,30.51,SW,229,0.0,1.0,52,0.00,,,0.00,0.0,meteohub,2013-01-28 02:12:00,
2013-01-27 21:17:00,22.6,8.4,30.52,SW,229,0.0,1.0,54,0.00,,,0.00,0.0,meteohub,2013-01-28 02:17:00,
2013-01-27 21:22:00,22.5,9.5,30.51,SW,229,0.0,0.0,57,0.00,,,0.00,0.0,meteohub,2013-01-28 02:22:00,
2013-01-27 21:27:00,22.5,10.2,30.52,SW,229,0.0,0.0,59,0.00,,,0.00,0.0,meteohub,2013-01-28 02:27:00,
2013-01-27 21:32:00,22.1,8.8,30.51,SW,229,0.0,1.0,56,0.00,,,0.00,0.0,meteohub,2013-01-28 02:32:00,
2013-01-27 21:37:00,21.7,8.8,30.51,SW,229,0.0,1.0,57,0.00,,,0.00,0.0,meteohub,2013-01-28 02:37:00,
2013-01-27 21:42:00,21.6,9.9,30.51,SW,229,0.0,0.0,60,0.00,,,0.00,0.0,meteohub,2013-01-28 02:42:00,
2013-01-27 21:47:00,21.4,10.0,30.51,SW,229,0.0,0.0,61,0.00,,,0.00,0.0,meteohub,2013-01-28 02:47:00,
2013-01-27 21:52:00,21.0,10.4,30.51,SW,229,0.0,0.0,63,0.00,,,0.00,0.0,meteohub,2013-01-28 02:52:00,
2013-01-27 21:57:00,20.8,10.2,30.51,SW,229,0.0,0.0,63,0.00,,,0.00,0.0,meteohub,2013-01-28 02:57:00,
2013-01-27 22:02:00,20.7,9.0,30.52,SW,229,0.0,0.0,60,0.00,,,0.00,0.0,meteohub,2013-01-28 03:02:00,
2013-01-27 22:07:00,20.5,9.1,30.52,SW,229,0.0,0.0,61,0.00,,,0.00,0.0,meteohub,2013-01-28 03:07:00,
2013-01-27 22:12:00,20.5,9.5,30.52,SW,229,0.0,0.0,62,0.00,,,0.00,0.0,meteohub,2013-01-28 03:12:00,
2013-01-27 22:17:00,20.1,9.1,30.52,SW,229,0.0,0.0,62,0.00,,,0.00,0.0,meteohub,2013-01-28 03:17:00,
2013-01-27 22:22:00,19.9,8.2,30.52,SW,229,0.0,1.0,60,0.00,,,0.00,0.0,meteohub,2013-01-28 03:22:00,
2013-01-27 22:27:00,19.9,8.6,30.51,SW,229,0.0,1.0,61,0.00,,,0.00,0.0,meteohub,2013-01-28 03:27:00,
2013-01-27 22:32:00,19.8,8.8,30.51,SW,229,0.0,1.0,62,0.00,,,0.00,0.0,meteohub,2013-01-28 03:32:00,
2013-01-27 22:37:00,19.6,8.6,30.51,SW,229,0.0,0.0,62,0.00,,,0.00,0.0,meteohub,2013-01-28 03:37:00,
2013-01-27 22:42:00,19.4,9.1,30.51,SW,229,0.0,0.0,64,0.00,,,0.00,0.0,meteohub,2013-01-28 03:42:00,
2013-01-27 22:47:00,19.2,9.0,30.51,SW,229,0.0,0.0,64,0.00,,,0.00,0.0,meteohub,2013-01-28 03:47:00,
2013-01-27 22:52:00,19.0,9.1,30.51,SW,229,0.0,0.0,65,0.00,,,0.00,0.0,meteohub,2013-01-28 03:52:00,
2013-01-27 22:57:00,19.0,9.0,30.51,SW,229,0.0,0.0,64,0.00,,,0.00,0.0,meteohub,2013-01-28 03:57:00,
2013-01-27 23:02:00,18.9,8.8,30.51,SW,229,0.0,0.0,64,0.00,,,0.00,0.0,meteohub,2013-01-28 04:02:00,
2013-01-27 23:07:00,18.9,8.4,30.52,SW,229,0.0,0.0,63,0.00,,,0.00,0.0,meteohub,2013-01-28 04:07:00,
2013-01-27 23:12:00,18.7,8.6,30.51,SW,229,0.0,0.0,64,0.00,,,0.00,0.0,meteohub,2013-01-28 04:12:00,
2013-01-27 23:17:00,18.7,9.0,30.51,SW,229,0.0,0.0,65,0.00,,,0.00,0.0,meteohub,2013-01-28 04:17:00,
2013-01-27 23:22:00,18.5,9.0,30.51,SW,229,0.0,0.0,66,0.00,,,0.00,0.0,meteohub,2013-01-28 04:22:00,
2013-01-27 23:27:00,18.3,9.0,30.51,SW,229,0.0,0.0,66,0.00,,,0.00,0.0,meteohub,2013-01-28 04:27:00,
2013-01-27 23:32:00,18.3,8.6,30.51,SW,229,0.0,0.0,65,0.00,,,0.00,0.0,meteohub,2013-01-28 04:32:00,
2013-01-27 23:37:00,18.1,8.4,30.51,SW,229,0.0,0.0,65,0.00,,,0.00,0.0,meteohub,2013-01-28 04:37:00,
2013-01-27 23:42:00,18.1,9.0,30.51,SW,229,0.0,0.0,67,0.00,,,0.00,0.0,meteohub,2013-01-28 04:42:00,
2013-01-27 23:47:00,18.1,9.0,30.52,SW,229,0.0,1.0,67,0.00,,,0.00,0.0,meteohub,2013-01-28 04:47:00,
2013-01-27 23:52:00,18.0,9.1,30.52,SW,229,0.0,1.0,68,0.00,,,0.00,0.0,meteohub,2013-01-28 04:52:00,
2013-01-27 23:57:00,18.0,9.5,30.51,SW,229,0.0,1.0,69,0.00,,,0.00,0.0,meteohub,2013-01-28 04:57:00,